1514804400.39,3374,8.56,72628.0,-3.05,-16.37,-16.89,0,*60
1514804401.62,3375,8.56,72626.8,-3.03,-16.55,-17.03,0,*60
1514804402.83,3376,8.56,72630.0,-3.03,-16.45,-16.97,0,*6E
1514804404.05,3377,8.56,72626.0,-3.03,-16.27,-16.89,0,*64
1514804405.28,3378,8.56,72626.5,-3.03,-16.27,-16.89,0,*6B
1514804406.49,3379,8.56,72628.5,-3.03,-16.41,-16.97,0,*65
1514804407.72,3380,8.56,72630.0,-3.03,-16.59,-17.03,0,*66
1514804408.95,3381,8.56,72628.0,-3.03,-16.59,-17.17,0,*62
1514804410.2,3382,8.56,72624.3,-3.03,-16.31,-17.03,0,*6A
1514804411.43,3383,8.56,72626.5,-3.03,-16.45,-17.03,0,*68
1514804412.67,3384,8.56,72628.3,-3.03,-16.59,-17.17,0,*67
1514804413.89,3385,8.56,72628.3,-3.03,-16.27,-16.89,0,*69
1514804415.15,3386,8.56,72628.5,-3.01,-16.45,-17.03,0,*6F
1514804416.4,3387,8.56,72626.3,-3.01,-16.31,-16.97,0,*61
1514804417.64,3388,8.56,72624.8,-3.03,-16.41,-17.03,0,*67
1514804418.87,3389,8.56,72626.8,-3.03,-16.41,-17.03,0,*66
1514804420.11,3390,8.56,72630.5,-3.03,-16.41,-17.03,0,*6E
1514804421.36,3391,8.56,72628.3,-3.01,-16.59,-17.17,0,*61
1514804422.62,3392,8.56,72628.5,-3.01,-16.17,-16.83,0,*64
1514804423.87,3393,8.56,72630.3,-3.01,-16.31,-16.89,0,*6B
1514804425.1,3394,8.56,72630.8,-3.03,-16.27,-16.89,0,*69
1514804426.36,3395,8.56,72632.5,-3.01,-16.41,-17.03,0,*69
1514804427.62,3396,8.56,72630.8,-3.01,-16.27,-16.75,0,*6A
1514804428.82,3397,8.56,72630.3,-2.99,-16.37,-16.93,0,*62
1514804430.05,3398,8.56,72628.5,-2.99,-16.79,-17.41,0,*69
1514804431.28,3399,8.56,72632.3,-2.99,-16.27,-16.83,0,*6C
1514804432.48,3400,8.56,72636.8,-2.99,-16.37,-16.93,0,*6B
1514804433.71,3401,8.56,72638.0,-2.99,-16.23,-16.93,0,*6F
1514804434.96,3402,8.56,72636.8,-2.99,-16.09,-16.65,0,*6D
1514804436.22,3403,8.56,72634.3,-2.97,-16.41,-17.11,0,*6C
1514804437.45,3404,8.56,72634.8,-2.99,-16.79,-17.41,0,*6B
1514804438.69,3405,8.56,72638.5,-2.99,-16.55,-17.11,0,*61
1514804439.89,3406,8.56,72638.3,-2.99,-16.37,-16.97,0,*69
1514804441.12,3407,8.56,72636.3,-2.97,-16.37,-16.97,0,*66
1514804442.35,3408,8.56,72638.0,-2.97,-16.37,-16.97,0,*69
1514804443.57,3409,8.56,72636.0,-2.99,-16.51,-16.97,0,*66
1514804444.85,3410,8.56,72636.5,-2.97,-16.51,-17.17,0,*69
1514804446.09,3411,8.56,72632.8,-2.97,-16.23,-16.93,0,*60
1514804447.34,3412,8.56,72634.0,-2.97,-16.27,-16.93,0,*67
1514804448.55,3413,8.56,72634.5,-2.99,-16.41,-16.93,0,*68
1514804449.8,3414,8.56,72630.0,-2.97,-16.55,-17.25,0,*68
1514804451.06,3415,8.56,72628.5,-2.97,-16.55,-17.11,0,*6E
1514804452.31,3416,8.56,72630.5,-2.97,-16.27,-16.97,0,*67
1514804453.54,3417,8.56,72624.8,-2.97,-16.41,-16.97,0,*66
1514804454.82,3418,8.56,72622.3,-2.97,-16.69,-17.41,0,*69
1514804456.09,3419,8.56,72626.8,-2.97,-16.69,-17.25,0,*6A
1514804457.35,3420,8.56,72620.3,-2.97,-16.55,-17.25,0,*6F
1514804458.62,3421,8.56,72624.3,-2.97,-16.65,-17.25,0,*6D
1514804459.88,3422,8.56,72624.3,-2.97,-16.83,-17.59,0,*6D
1514804461.13,3423,8.56,72620.5,-2.97,-16.79,-17.41,0,*60
1514804462.38,3424,8.56,72622.5,-2.97,-16.69,-17.31,0,*61
1514804463.61,3425,8.56,72622.5,-2.95,-16.75,-17.25,0,*6A
1514804464.83,3426,8.56,72622.8,-2.95,-16.75,-17.35,0,*68
1514804466.04,3427,8.56,72626.0,-2.95,-16.75,-17.35,0,*69
1514804467.25,3428,8.56,72624.3,-2.95,-16.75,-17.35,0,*66
1514804468.51,3429,8.56,72628.0,-2.95,-16.65,-17.21,0,*63
1514804469.76,3430,8.56,72628.5,-2.95,-16.51,-17.11,0,*6F
1514804471.02,3431,8.56,72626.3,-2.95,-16.65,-17.25,0,*6E
1514804472.26,3432,8.56,72628.5,-2.95,-16.45,-17.07,0,*6F
1514804473.49,3433,8.56,72630.8,-2.91,-16.59,-17.11,0,*60
1514804474.72,3434,8.56,72628.0,-2.95,-16.59,-17.11,0,*63
1514804475.99,3435,8.56,72630.0,-2.95,-16.51,-17.07,0,*6D
1514804477.22,3436,8.56,72630.8,-2.91,-16.59,-17.11,0,*65
1514804478.48,3437,8.56,72636.8,-2.95,-16.51,-17.07,0,*6F
1514804479.69,3438,8.56,72634.8,-2.95,-16.97,-17.69,0,*62
1514804480.92,3439,8.56,72634.5,-2.91,-16.75,-17.41,0,*61
1514804482.16,3440,8.56,72628.8,-2.91,-16.59,-17.07,0,*63
1514804483.4,3441,8.56,72628.5,-2.95,-16.45,-17.07,0,*6B
1514804484.64,3442,8.56,72634.3,-2.91,-16.45,-17.07,0,*6C
1514804485.9,3443,8.56,72636.8,-2.91,-16.51,-17.11,0,*6F
1514804487.15,3444,8.56,72634.0,-2.95,-16.65,-17.21,0,*68
1514804488.39,3445,8.56,72640.0,-2.91,-16.45,-17.07,0,*6B
1514804489.6,3446,8.56,72632.8,-2.91,-16.75,-17.49,0,*61
1514804490.84,3447,8.56,72636.8,-2.91,-16.79,-17.41,0,*64
1514804492.09,3448,8.56,72636.0,-2.91,-16.51,-17.11,0,*64
1514804493.35,3449,8.56,72638.3,-2.91,-16.65,-17.21,0,*61
1514804494.59,3450,8.56,72636.3,-2.91,-16.59,-17.21,0,*66
1514804495.8,3451,8.56,72636.5,-2.91,-16.75,-17.35,0,*6C
1514804497.03,3452,8.56,72638.5,-2.91,-16.59,-17.21,0,*64
1514804498.24,3453,8.56,72634.3,-2.91,-16.97,-17.69,0,*6B
1514804499.48,3454,8.56,72636.3,-2.91,-16.79,-17.41,0,*66
1514804500.71,3455,8.56,72628.8,-2.91,-16.79,-17.41,0,*67
1514804501.97,3456,8.56,72634.3,-2.91,-16.51,-17.07,0,*6C
1514804503.21,3457,8.56,72640.5,-2.91,-16.59,-17.21,0,*61
1514804504.44,3458,8.56,72642.0,-2.91,-16.89,-17.41,0,*65
1514804505.64,3459,8.56,72638.8,-2.91,-16.93,-17.49,0,*67
1514804506.87,3460,8.56,72636.8,-2.89,-16.83,-17.49,0,*65
1514804508.13,3461,8.56,72638.0,-2.91,-17.07,-17.63,0,*68
1514804509.36,3462,8.56,72634.8,-2.91,-16.89,-17.55,0,*69
1514804510.61,3463,8.56,72636.0,-2.91,-17.07,-17.79,0,*61
1514804511.84,3464,8.56,72638.5,-2.91,-17.11,-17.69,0,*60
1514804513.08,3465,8.56,72636.3,-2.91,-17.21,-17.83,0,*66
1514804514.34,3466,8.56,72638.0,-2.91,-17.25,-17.93,0,*60
1514804515.56,3467,8.56,72638.0,-2.91,-17.55,-18.25,0,*64
1514804516.79,3468,8.56,72632.8,-2.91,-17.69,-18.31,0,*61
1514804518.04,3469,8.56,72630.5,-2.95,-17.93,-18.55,0,*63
1514804519.26,3470,8.56,72628.3,-2.95,-17.79,-18.41,0,*6A
1514804520.55,3471,8.56,72628.8,-2.97,-17.41,-17.97,0,*66
1514804521.81,3472,8.56,72628.3,-2.97,-17.17,-17.69,0,*67
1514804523.04,3473,8.56,72630.3,-2.99,-16.97,-17.59,0,*62
1514804524.3,3474,8.56,72630.5,-2.97,-17.45,-17.87,0,*66
1514804525.58,3475,8.56,72630.0,-2.97,-17.45,-17.97,0,*66
1514804526.83,3476,8.56,72626.0,-2.97,-17.11,-17.73,0,*6E
1514804528.09,3477,8.56,72626.3,-2.99,-17.03,-17.55,0,*66
1514804529.34,3478,8.56,72628.8,-2.97,-16.83,-17.45,0,*6F
1514804530.6,3479,8.56,72624.8,-2.97,-17.25,-17.83,0,*69
1514804531.86,3480,8.56,72628.5,-2.97,-17.17,-17.83,0,*6E
1514804533.06,3481,8.56,72626.0,-2.99,-16.93,-17.31,0,*65
1514804534.3,3482,8.56,72624.5,-2.97,-16.93,-17.55,0,*6A
1514804535.55,3483,8.56,72628.5,-2.97,-16.93,-17.45,0,*6A
1514804536.8,3484,8.56,72632.3,-2.97,-16.97,-17.55,0,*68
1514804538.03,3485,8.56,72628.5,-2.99,-17.25,-17.73,0,*6B
1514804539.27,3486,8.56,72630.8,-2.99,-17.17,-17.69,0,*62
1514804540.49,3487,8.56,72630.5,-2.99,-17.11,-17.69,0,*65
1514804541.72,3488,8.56,72628.8,-2.99,-16.97,-17.55,0,*6A
1514804542.97,3489,8.56,72630.5,-2.97,-16.97,-17.59,0,*69
1514804544.26,3490,8.56,72628.5,-2.97,-17.17,-17.59,0,*68
1514804545.51,3491,8.56,72630.5,-2.97,-16.93,-17.41,0,*6D
1514804546.72,3492,8.56,72632.3,-2.97,-16.93,-17.31,0,*69
1514804547.98,3493,8.56,72628.5,-2.97,-17.25,-17.87,0,*69
1514804549.26,3494,8.56,72628.5,-2.97,-17.03,-17.59,0,*69
1514804550.51,3495,8.56,72628.8,-2.97,-16.93,-17.41,0,*69
1514804551.75,3496,8.56,72630.3,-2.99,-17.41,-17.87,0,*60
1514804553.04,3497,8.56,72626.8,-2.97,-17.17,-17.59,0,*6F
1514804554.29,3498,8.56,72626.5,-2.99,-17.11,-17.59,0,*68
1514804555.54,3499,8.56,72626.5,-2.97,-16.97,-17.55,0,*64
1514804556.77,3500,8.56,72626.3,-2.99,-16.83,-17.25,0,*69
1514804558.05,3501,8.56,72628.0,-2.97,-17.03,-17.45,0,*69
1514804559.27,3502,8.56,72624.0,-2.99,-16.93,-17.25,0,*6A
1514804560.52,3503,8.56,72626.3,-2.97,-16.79,-17.17,0,*60
1514804561.77,3504,8.56,72628.3,-2.97,-16.93,-17.17,0,*63
1514804562.99,3505,8.56,72632.0,-2.97,-16.83,-17.31,0,*67
1514804564.21,3506,8.56,72638.0,-2.97,-16.93,-17.31,0,*65
1514804565.49,3507,8.56,72632.3,-2.97,-17.11,-17.59,0,*61
1514804566.74,3508,8.56,72632.5,-2.97,-16.97,-17.45,0,*6C
1514804567.96,3509,8.56,72630.5,-2.97,-16.83,-17.31,0,*6B
1514804569.19,3510,8.56,72630.3,-2.97,-16.79,-17.31,0,*66
1514804570.45,3511,8.56,72630.8,-2.97,-17.17,-17.69,0,*63
1514804571.7,3512,8.56,72632.3,-2.97,-17.03,-17.69,0,*65
1514804572.96,3513,8.56,72628.3,-2.97,-17.17,-17.69,0,*61
1514804574.21,3514,8.56,72628.8,-2.97,-16.97,-17.45,0,*61
1514804575.49,3515,8.56,72630.8,-2.97,-17.11,-17.59,0,*62
1514804576.77,3516,8.56,72632.8,-2.97,-17.17,-17.55,0,*6B
1514804578.0,3517,8.56,72636.0,-2.95,-16.97,-17.41,0,*64
1514804579.27,3518,8.56,72632.0,-2.97,-17.55,-18.01,0,*6D
1514804580.49,3519,8.56,72632.3,-2.95,-17.35,-17.83,0,*6D
1514804581.7,3520,8.56,72630.5,-2.95,-17.49,-17.83,0,*6C
1514804582.97,3521,8.56,72632.0,-2.97,-17.59,-17.97,0,*6B
1514804584.25,3522,8.56,72634.5,-2.97,-17.25,-17.55,0,*6D
1514804585.54,3523,8.56,72630.5,-2.97,-17.17,-17.59,0,*61
1514804586.81,3524,8.56,72628.0,-2.97,-17.25,-17.55,0,*6B
1514804588.09,3525,8.56,72628.5,-2.97,-17.11,-17.55,0,*6D
1514804589.34,3526,8.56,72628.8,-2.97,-17.55,-17.87,0,*61
1514804590.63,3527,8.56,72624.8,-2.97,-17.17,-17.45,0,*68
1514804591.91,3528,8.56,72624.8,-2.97,-17.25,-17.59,0,*6B
1514804593.16,3529,8.56,72624.8,-2.97,-16.97,-17.41,0,*6B
1514804594.44,3530,8.56,72626.0,-2.97,-17.11,-17.41,0,*6C
1514804595.68,3531,8.56,72630.8,-2.97,-17.03,-17.31,0,*69
1514804596.96,3532,8.56,72632.5,-2.97,-17.03,-17.41,0,*6D
1514804598.19,3533,8.56,72628.0,-2.97,-16.97,-17.31,0,*67
1514804599.44,3534,8.56,72632.5,-2.97,-16.97,-17.25,0,*65
1514804600.68,3535,8.56,72634.3,-2.97,-16.93,-17.25,0,*60
1514804601.9,3536,8.56,72630.8,-2.95,-16.93,-17.25,0,*61
1514804603.13,3537,8.56,72634.5,-2.95,-16.93,-17.25,0,*60
1514804604.36,3538,8.56,72632.8,-2.95,-17.07,-17.35,0,*62
1514804605.59,3539,8.56,72632.3,-2.91,-17.21,-17.49,0,*68
1514804606.82,3540,8.56,72632.0,-2.91,-16.93,-17.25,0,*64
1514804608.05,3541,8.56,72632.0,-2.91,-16.89,-17.21,0,*6A
1514804609.31,3542,8.56,72630.8,-2.95,-17.07,-17.25,0,*6E
1514804610.54,3543,8.56,72630.5,-2.95,-17.07,-17.35,0,*6E
1514804611.77,3544,8.56,72632.5,-2.91,-17.21,-17.49,0,*62
1514804613.01,3545,8.56,72634.8,-2.95,-17.41,-17.69,0,*63
1514804614.24,3546,8.56,72630.0,-2.91,-17.21,-17.49,0,*60
1514804615.49,3547,8.56,72628.3,-2.95,-17.11,-17.41,0,*6E
1514804616.75,3548,8.56,72632.3,-2.95,-17.11,-17.41,0,*61
1514804618.0,3549,8.56,72628.8,-2.95,-17.07,-17.41,0,*67
1514804619.23,3550,8.56,72632.0,-2.91,-16.93,-17.25,0,*65
1514804620.46,3551,8.56,72630.5,-2.95,-17.25,-17.49,0,*66
1514804621.71,3552,8.56,72628.3,-2.91,-17.07,-17.25,0,*6B
1514804622.94,3553,8.56,72628.0,-2.95,-16.79,-17.11,0,*61
1514804624.18,3554,8.56,72632.5,-2.91,-16.79,-17.07,0,*65
1514804625.41,3555,8.56,72632.0,-2.91,-16.93,-17.21,0,*64
1514804626.66,3556,8.56,72634.8,-2.95,-17.11,-17.25,0,*6C
1514804627.92,3557,8.56,72628.8,-2.95,-17.25,-17.55,0,*6D
1514804629.18,3558,8.56,72628.3,-2.89,-17.17,-17.35,0,*68
1514804630.41,3559,8.56,72626.8,-2.91,-17.21,-17.49,0,*6E
1514804631.67,3560,8.56,72628.5,-2.91,-17.07,-17.25,0,*6A
1514804632.95,3561,8.56,72628.5,-2.89,-17.03,-17.21,0,*62
1514804634.2,3562,8.56,72632.5,-2.89,-16.93,-17.07,0,*6D
1514804635.44,3563,8.56,72630.0,-2.91,-17.11,-17.35,0,*6F
1514804636.72,3564,8.56,72628.0,-2.89,-17.03,-17.17,0,*62
1514804637.95,3565,8.56,72628.8,-2.87,-16.89,-17.03,0,*6B
1514804639.2,3566,8.56,72626.8,-2.89,-16.83,-17.03,0,*6C
1514804640.45,3567,8.56,72628.0,-2.89,-17.07,-17.31,0,*61
1514804641.71,3568,8.56,72632.3,-2.89,-16.83,-17.07,0,*66
1514804642.97,3569,8.56,72632.8,-2.89,-17.03,-17.35,0,*6F
1514804644.23,3570,8.56,72630.3,-2.89,-17.07,-17.35,0,*63
1514804645.52,3571,8.56,72628.0,-2.89,-17.17,-17.45,0,*64
1514804646.8,3572,8.56,72624.8,-2.89,-16.69,-17.03,0,*6D
1514804648.0,3573,8.56,72628.3,-2.87,-16.45,-16.89,0,*6F
1514804649.28,3574,8.56,72628.0,-2.89,-16.69,-17.21,0,*6B
1514804650.51,3575,8.56,72626.8,-2.87,-16.55,-17.03,0,*6B
1514804651.78,3576,8.56,72630.3,-2.89,-16.55,-17.07,0,*62
1514804653.01,3577,8.56,72628.0,-2.87,-16.83,-17.45,0,*60
1514804654.24,3578,8.56,72628.5,-2.89,-16.83,-17.35,0,*66
1514804655.5,3579,8.56,72626.0,-2.89,-16.55,-17.03,0,*69
1514804656.79,3580,8.56,72626.3,-2.89,-16.69,-17.07,0,*64
1514804658.05,3581,8.56,72628.0,-2.87,-16.69,-17.07,0,*6B
1514804659.3,3582,8.56,72626.8,-2.89,-16.75,-17.17,0,*6A
1514804660.53,3583,8.56,72628.8,-2.87,-16.75,-17.17,0,*65
1514804661.76,3584,8.56,72630.3,-2.87,-16.89,-17.17,0,*61
1514804663.0,3585,8.56,72628.8,-2.87,-17.35,-17.59,0,*6C
1514804664.23,3586,8.56,72628.8,-2.87,-17.45,-17.49,0,*69
1514804665.46,3587,8.56,72626.8,-2.87,-17.17,-17.31,0,*60
1514804666.69,3588,8.56,72630.3,-2.87,-17.17,-17.31,0,*6F
1514804667.97,3589,8.56,72630.0,-2.85,-17.41,-17.45,0,*6C
1514804669.18,3590,8.56,72632.5,-2.87,-17.35,-17.49,0,*69
1514804670.39,3591,8.56,72628.3,-2.83,-17.83,-17.83,0,*67
1514804671.63,3592,8.56,72628.3,-2.89,-17.63,-17.73,0,*6F
1514804672.89,3593,8.56,72628.8,-2.87,-17.45,-17.45,0,*61
1514804674.14,3594,8.56,72628.8,-2.89,-17.31,-17.21,0,*69
1514804675.4,3595,8.56,72632.0,-2.87,-17.07,-17.07,0,*67
1514804676.66,3596,8.56,72630.5,-2.87,-17.03,-17.03,0,*64
1514804677.92,3597,8.56,72628.0,-2.87,-17.03,-17.03,0,*65
1514804679.18,3598,8.56,72632.0,-2.87,-17.03,-17.03,0,*6A
1514804680.4,3599,8.56,72628.0,-2.87,-16.93,-17.03,0,*63
1514804681.66,3600,8.56,72630.0,-2.87,-17.17,-17.17,0,*68
1514804682.92,3601,8.56,72630.3,-2.83,-17.17,-17.11,0,*6B
1514804684.17,3602,8.56,72630.3,-2.83,-17.03,-17.03,0,*6E
1514804685.46,3603,8.56,72628.3,-2.85,-17.45,-17.45,0,*69
1514804686.71,3604,8.56,72630.8,-2.83,-17.25,-17.25,0,*68
1514804687.93,3605,8.56,72628.3,-2.85,-17.31,-17.31,0,*6F
1514804689.21,3606,8.56,72628.0,-2.85,-17.41,-17.25,0,*6E
1514804690.5,3607,8.56,72628.5,-2.85,-17.17,-17.11,0,*6B
1514804691.75,3608,8.56,72628.0,-2.83,-17.17,-17.11,0,*62
1514804692.97,3609,8.56,72628.0,-2.83,-17.11,-16.97,0,*6A
1514804694.2,3610,8.56,72626.8,-2.85,-16.97,-16.97,0,*6B
1514804695.43,3611,8.56,72626.0,-2.83,-17.11,-16.97,0,*63
1514804696.63,3612,8.56,72626.5,-2.83,-16.97,-16.97,0,*6F
1514804697.82,3613,8.56,72624.0,-2.83,-16.97,-16.97,0,*6E
1514804699.05,3614,8.56,72624.5,-2.83,-17.03,-16.97,0,*65
1514804700.27,3615,8.56,72622.5,-2.83,-17.31,-17.17,0,*6C
1514804701.55,3616,8.56,72624.3,-2.85,-17.25,-17.03,0,*69
1514804702.81,3617,8.56,72628.3,-2.83,-17.25,-17.11,0,*6D
1514804704.06,3618,8.56,72628.5,-2.83,-17.41,-17.25,0,*67
1514804705.29,3619,8.56,72626.8,-2.83,-17.93,-17.83,0,*65
1514804706.56,3620,8.56,72626.5,-2.81,-17.63,-17.55,0,*69
1514804707.8,3621,8.56,72626.5,-2.83,-17.55,-17.25,0,*68
1514804709.06,3622,8.56,72626.8,-2.83,-17.45,-17.25,0,*6A
1514804710.34,3623,8.56,72622.5,-2.81,-17.21,-17.07,0,*6B
1514804711.6,3624,8.56,72624.3,-2.81,-17.35,-17.07,0,*69
1514804712.85,3625,8.56,72626.3,-2.83,-17.45,-17.25,0,*6D
1514804714.1,3626,8.56,72624.5,-2.83,-17.41,-17.17,0,*6B
1514804715.33,3627,8.56,72624.8,-2.83,-17.17,-16.97,0,*60
1514804716.56,3628,8.56,72622.8,-2.83,-17.25,-16.97,0,*6E
1514804717.79,3629,8.56,72624.5,-2.83,-17.25,-16.97,0,*6F
1514804719.03,3630,8.56,72626.5,-2.83,-17.55,-17.25,0,*68
1514804720.29,3631,8.56,72626.8,-2.83,-17.25,-17.03,0,*6A
1514804721.53,3632,8.56,72626.5,-2.81,-17.25,-16.97,0,*67
1514804722.76,3633,8.56,72624.0,-2.81,-17.69,-17.35,0,*67
1514804724.02,3634,8.56,72626.5,-2.81,-17.55,-17.35,0,*6F
1514804725.3,3635,8.56,72626.0,-2.81,-17.41,-17.07,0,*6A
1514804726.55,3636,8.56,72622.8,-2.81,-17.63,-17.35,0,*68
1514804727.78,3637,8.56,72624.3,-2.83,-17.31,-17.03,0,*69
1514804729.0,3638,8.56,72630.0,-2.83,-17.73,-17.55,0,*63
1514804730.2,3639,8.56,72626.8,-2.83,-18.21,-17.87,0,*65
1514804731.43,3640,8.56,72630.0,-2.83,-17.69,-17.45,0,*66
1514804732.65,3641,8.56,72624.5,-2.83,-17.69,-17.45,0,*67
1514804733.88,3642,8.56,72624.8,-2.83,-17.69,-17.11,0,*65
1514804735.13,3643,8.56,72624.5,-2.83,-17.59,-17.17,0,*61
1514804736.37,3644,8.56,72626.0,-2.83,-17.55,-17.17,0,*6A
1514804737.62,3645,8.56,72628.8,-2.83,-17.55,-17.11,0,*6D
1514804738.85,3646,8.56,72624.0,-2.83,-17.83,-17.45,0,*64
1514804740.1,3647,8.56,72628.3,-2.83,-17.55,-17.25,0,*68
1514804741.36,3648,8.56,72628.5,-2.83,-17.41,-17.03,0,*66
1514804742.63,3649,8.56,72626.0,-2.85,-17.59,-17.25,0,*6C
1514804743.86,3650,8.56,72624.3,-2.83,-17.45,-16.97,0,*67
1514804745.11,3651,8.56,72622.0,-2.83,-17.59,-17.11,0,*64
1514804746.36,3652,8.56,72624.5,-2.83,-18.01,-17.59,0,*69
1514804747.62,3653,8.56,72624.3,-2.85,-17.83,-17.55,0,*67
1514804748.84,3654,8.56,72628.0,-2.83,-18.45,-17.93,0,*69
1514804750.07,3655,8.56,72626.3,-2.85,-18.49,-18.17,0,*61
1514804751.32,3656,8.56,72626.0,-2.89,-18.41,-17.93,0,*65
1514804752.53,3657,8.56,72628.5,-2.87,-18.21,-17.87,0,*69
1514804753.76,3658,8.56,72626.3,-2.87,-18.11,-17.79,0,*64
1514804754.98,3659,8.56,72630.8,-2.89,-18.21,-17.73,0,*62
1514804756.18,3660,8.56,72630.8,-2.87,-18.21,-17.73,0,*66
1514804757.41,3661,8.56,72630.0,-2.91,-18.17,-17.79,0,*6F
1514804758.64,3662,8.56,72632.8,-2.91,-18.41,-17.93,0,*6B
1514804759.88,3663,8.56,72632.0,-2.91,-18.55,-18.11,0,*6A
1514804761.08,3664,8.56,72630.5,-2.91,-18.69,-18.25,0,*65
1514804762.3,3665,8.56,72632.3,-2.91,-19.03,-18.59,0,*62
1514804763.54,3666,8.56,72634.8,-2.95,-19.23,-18.73,0,*6F
1514804764.79,3667,8.56,72632.0,-2.97,-19.37,-18.89,0,*6C
1514804766.02,3668,8.56,72628.3,-2.99,-19.37,-18.93,0,*66
1514804767.26,3669,8.56,72628.0,-2.99,-19.37,-18.93,0,*67
1514804768.51,3670,8.56,72626.3,-3.01,-19.31,-18.83,0,*68
1514804769.74,3671,8.56,72626.5,-3.03,-19.27,-18.79,0,*69
1514804770.96,3672,8.56,72626.8,-3.03,-19.13,-18.69,0,*6C
1514804772.16,3673,8.56,72620.5,-3.03,-19.03,-18.69,0,*6C
1514804773.36,3674,8.56,72620.5,-3.07,-19.07,-18.65,0,*67
1514804774.59,3675,8.56,72618.8,-3.05,-18.83,-18.41,0,*6F
1514804775.82,3676,8.56,72616.3,-3.07,-19.57,-19.03,0,*61
1514804777.07,3677,8.56,72618.8,-3.09,-19.65,-19.13,0,*6E
1514804778.3,3678,8.56,72616.8,-3.11,-19.61,-19.07,0,*69
1514804779.55,3679,8.56,72616.8,-3.11,-19.41,-18.55,0,*6C
1514804780.8,3680,8.56,72614.3,-3.13,-18.93,-18.21,0,*65
1514804782.08,3681,8.56,72618.8,-3.17,-18.59,-17.97,0,*64
1514804783.36,3682,8.56,72616.3,-3.13,-18.35,-17.79,0,*69
1514804784.61,3683,8.56,72614.0,-3.17,-18.07,-17.55,0,*63
1514804785.86,3684,8.56,72610.3,-3.13,-18.07,-17.63,0,*65
1514804787.12,3685,8.56,72612.8,-3.17,-17.97,-17.35,0,*65
1514804788.35,3686,8.56,72608.3,-3.17,-17.35,-16.93,0,*63
1514804789.58,3687,8.56,72616.8,-3.19,-17.17,-16.89,0,*67
1514804790.82,3688,8.56,72618.0,-3.19,-17.35,-17.07,0,*6F
1514804792.07,3689,8.56,72618.0,-3.19,-17.55,-17.21,0,*6C
1514804793.27,3690,8.56,72620.3,-3.19,-17.49,-16.89,0,*6A
1514804794.47,3691,8.56,72618.5,-3.19,-17.49,-16.93,0,*60
1514804795.7,3692,8.56,72618.8,-3.13,-17.49,-16.83,0,*68
1514804796.98,3693,8.56,72622.8,-3.17,-17.93,-17.21,0,*63
1514804798.2,3694,8.56,72620.0,-3.17,-17.69,-16.89,0,*62
1514804799.46,3695,8.56,72624.3,-3.13,-17.59,-16.75,0,*67
1514804800.74,3696,8.56,72618.3,-3.17,-17.93,-17.07,0,*62
1514804801.99,3697,8.56,72622.3,-3.13,-17.79,-16.89,0,*64
1514804803.25,3698,8.56,72630.3,-3.17,-17.41,-16.75,0,*67
1514804804.5,3699,8.56,72632.0,-3.17,-17.55,-16.79,0,*6F
1514804805.78,3700,8.56,72626.0,-3.17,-17.93,-17.17,0,*6D
1514804807.03,3701,8.56,72634.3,-3.13,-17.93,-17.31,0,*6C
1514804808.28,3702,8.56,72628.3,-3.17,-17.83,-17.17,0,*6E
1514804809.53,3703,8.56,72628.8,-3.13,-17.93,-17.31,0,*6E
1514804810.78,3704,8.56,72626.8,-3.13,-17.87,-17.11,0,*6E
1514804812.03,3705,8.56,72630.0,-3.17,-17.55,-16.79,0,*6B
1514804813.26,3706,8.56,72628.3,-3.13,-18.17,-17.31,0,*68
1514804814.48,3707,8.56,72628.8,-3.13,-17.87,-16.97,0,*62
1514804815.77,3708,8.56,72630.3,-3.17,-17.97,-17.21,0,*64
1514804816.99,3709,8.56,72630.3,-3.13,-18.25,-17.49,0,*69
1514804818.24,3710,8.56,72628.0,-3.13,-18.07,-17.45,0,*6D
1514804819.52,3711,8.56,72626.8,-3.17,-17.97,-17.17,0,*69
1514804820.75,3712,8.56,72626.5,-3.13,-17.73,-16.89,0,*62
1514804821.99,3713,8.56,72626.3,-3.17,-17.63,-16.79,0,*69
1514804823.25,3714,8.56,72628.3,-3.17,-17.55,-16.79,0,*6B
1514804824.49,3715,8.56,72628.8,-3.17,-17.63,-16.89,0,*60
1514804825.77,3716,8.56,72628.5,-3.13,-17.93,-17.17,0,*6E
1514804827.04,3717,8.56,72630.8,-3.13,-17.79,-17.03,0,*6E
1514804828.3,3718,8.56,72632.5,-3.13,-17.87,-17.11,0,*63
1514804829.58,3719,8.56,72628.0,-3.17,-17.97,-17.21,0,*64
1514804830.82,3720,8.56,72630.0,-3.13,-17.79,-16.89,0,*69
1514804832.07,3721,8.56,72630.8,-3.13,-17.79,-16.83,0,*62
1514804833.3,3722,8.56,72628.8,-3.13,-17.49,-16.55,0,*69
1514804834.55,3723,8.56,72632.5,-3.13,-17.49,-16.69,0,*67
1514804835.8,3724,8.56,72630.5,-3.13,-17.45,-16.45,0,*62
1514804837.03,3725,8.56,72628.0,-3.13,-17.31,-16.41,0,*64
1514804838.28,3726,8.56,72628.0,-3.13,-17.45,-16.55,0,*61
1514804839.55,3727,8.56,72630.5,-3.17,-17.41,-16.59,0,*6C
1514804840.82,3728,8.56,72626.5,-3.13,-17.11,-16.31,0,*6C
1514804842.04,3729,8.56,72628.3,-3.13,-17.31,-16.45,0,*6C
1514804843.29,3730,8.56,72628.8,-3.13,-17.21,-16.55,0,*64
1514804844.54,3731,8.56,72628.3,-3.17,-17.63,-16.79,0,*69
1514804845.76,3732,8.56,72630.5,-3.13,-17.31,-16.45,0,*66
1514804846.99,3733,8.56,72630.0,-3.13,-17.35,-16.59,0,*6E
1514804848.22,3734,8.56,72628.3,-3.13,-17.73,-16.83,0,*6C
1514804849.47,3735,8.56,72628.3,-3.13,-17.49,-16.69,0,*60
1514804850.72,3736,8.56,72630.3,-3.13,-17.45,-16.45,0,*61
1514804851.98,3737,8.56,72630.3,-3.13,-17.45,-16.59,0,*6D
1514804853.26,3738,8.56,72632.3,-3.13,-17.45,-16.69,0,*61
1514804854.52,3739,8.56,72628.8,-3.13,-17.59,-16.75,0,*60
1514804855.76,3740,8.56,72632.3,-3.17,-17.35,-16.59,0,*6E
1514804856.98,3741,8.56,72632.0,-3.11,-17.63,-16.83,0,*6D
1514804858.23,3742,8.56,72630.8,-3.13,-17.79,-16.89,0,*6D
1514804859.45,3743,8.56,72630.0,-3.13,-17.73,-16.97,0,*69
1514804860.73,3744,8.56,72634.8,-3.13,-17.93,-17.11,0,*6F
1514804862.0,3745,8.56,72630.5,-3.13,-17.93,-17.17,0,*68
1514804863.26,3746,8.56,72632.5,-3.13,-17.87,-17.03,0,*6B
1514804864.53,3747,8.56,72632.8,-3.13,-17.93,-17.11,0,*6C
1514804865.81,3748,8.56,72632.5,-3.13,-17.93,-17.11,0,*63
1514804867.09,3749,8.56,72630.5,-3.13,-18.01,-17.17,0,*60
1514804868.32,3750,8.56,72628.0,-3.17,-18.45,-17.69,0,*65
1514804869.57,3751,8.56,72632.3,-3.17,-18.73,-17.97,0,*60
1514804870.82,3752,8.56,72630.0,-3.17,-18.59,-17.69,0,*6A
1514804872.05,3753,8.56,72630.5,-3.21,-18.49,-17.69,0,*6F
1514804873.31,3754,8.56,72630.3,-3.21,-18.11,-17.21,0,*69
1514804874.51,3755,8.56,72630.3,-3.19,-17.69,-16.79,0,*6F
1514804875.79,3756,8.56,72624.8,-3.21,-17.41,-16.51,0,*67
1514804877.02,3757,8.56,72628.8,-3.19,-17.25,-16.45,0,*6A
1514804878.26,3758,8.56,72630.5,-3.21,-17.31,-16.51,0,*6E
1514804879.51,3759,8.56,72630.5,-3.21,-17.11,-16.37,0,*6D
1514804880.74,3760,8.56,72632.3,-3.19,-17.35,-16.51,0,*6A
1514804882.0,3761,8.56,72632.5,-3.19,-17.41,-16.65,0,*6F
1514804883.2,3762,8.56,72632.3,-3.19,-17.69,-16.89,0,*64
1514804884.46,3763,8.56,72630.5,-3.19,-17.93,-17.07,0,*67
1514804885.69,3764,8.56,72632.8,-3.19,-17.83,-17.03,0,*65
1514804886.9,3765,8.56,72636.0,-3.19,-17.69,-16.79,0,*6C
1514804888.15,3766,8.56,72630.0,-3.19,-17.97,-17.17,0,*67
1514804889.43,3767,8.56,72638.8,-3.21,-18.01,-17.21,0,*68
1514804890.63,3768,8.56,72630.0,-3.19,-17.83,-16.93,0,*61
1514804891.86,3769,8.56,72632.0,-3.21,-17.87,-16.93,0,*6F
1514804893.09,3770,8.56,72634.8,-3.21,-17.87,-16.97,0,*63
1514804894.32,3771,8.56,72634.5,-3.21,-17.83,-16.79,0,*66
1514804895.57,3772,8.56,72630.8,-3.23,-17.59,-16.65,0,*6D
1514804896.8,3773,8.56,72632.5,-3.23,-17.59,-16.55,0,*6F
1514804898.05,3774,8.56,72634.0,-3.23,-17.41,-16.51,0,*65
1514804899.28,3775,8.56,72630.0,-3.23,-17.25,-16.37,0,*66
1514804900.52,3776,8.56,72634.8,-3.25,-17.31,-16.27,0,*67
1514804901.8,3777,8.56,72630.5,-3.25,-17.25,-16.23,0,*67
1514804903.05,3778,8.56,72632.8,-3.25,-17.25,-15.99,0,*6A
1514804904.27,3779,8.56,72630.3,-3.23,-17.11,-15.67,0,*6B
1514804905.5,3780,8.56,72630.8,-3.23,-17.07,-15.63,0,*6E
1514804906.76,3781,8.56,72628.3,-3.25,-16.69,-15.25,0,*62
1514804908.0,3782,8.56,72622.8,-3.25,-16.59,-15.53,0,*63
1514804909.25,3783,8.56,72622.5,-3.25,-16.37,-15.21,0,*6F
1514804910.54,3784,8.56,72620.8,-3.25,-16.09,-14.97,0,*69
1514804911.76,3785,8.56,72620.8,-3.23,-15.63,-14.51,0,*6B
1514804913.02,3786,8.56,72620.5,-3.25,-15.57,-14.65,0,*6E
1514804914.24,3787,8.56,72624.0,-3.25,-15.53,-14.69,0,*67